Location: Härggis
(46.9540°N, 8.4897°E)
Time: 21:20:02
(UTC+00:00)

Lacrosse 5 rocket - Pass Details

Date: 27 May 2022
Orbit: 456 x 629 km, 57.0° (Epoch: 04 July)

Event Time Altitude Azimuth Distance (km) Brightness Sun altitude
Exits shadow 02:50:55 - 262° (W) 2,143 3.8 -7.3°
Reaches altitude 10° 02:51:59 10° 268° (W) 1,741 3.4 -7.2°
Maximum altitude 02:55:37 35° 335° (NNW) 879 2.5 -6.7°
Drops below altitude 10° 02:59:29 10° 43° (NE) 1,849 5.8 -6.2°
Sets 03:01:57 0° 52° (NE) 2,780 7.8 -5.9°
